Meteo Giornale » Osservazioni meteo Slovacchia » Bratislava Ivanka

ore: 17:00 - Osservazioni Meteo Bratislava Ivanka
Lat. 48° 12' N Lon. 17° 12' E Alt. 133 metri s.l.m.

molto_nuvoloso Europe/Bratislava

14 °C

Molto Nuvoloso

Temp. 24 Ore

7 °C

15 °C

Nord

5.5 Km/h

Dew point 9 °C

Umidità 71 %

Visibilità  10 Km

Il sole sorge alle ore 07:20

Il sole tramonta alle ore 17:50

Data e Ora Cielo e Fenomeni T °C DP °C Um. % Pres. hPa Vis. km Vento km/h
Oggi h: 17:00 molto_nuvoloso Molto Nuvoloso 14 9 71 1020 10 N 5.5
Oggi h: 16:30 nuvoloso Nuvoloso 14 9 71 1020 10 N 5.5
Oggi h: 16:00 poco_nuvoloso Poco Nuvoloso 15 9 67 1020 10 E/SE 9.3
Oggi h: 15:30 nuvoloso Nuvoloso 15 8 62 1020 10 E 7.4
Oggi h: 15:00 nuvoloso Nuvoloso 15 9 67 1020 10 N 5.5
Oggi h: 14:30 nuvoloso Nuvoloso 14 8 67 1020 10 E/NE 7.4
Oggi h: 14:00 nuvoloso Nuvoloso 15 9 67 1020 10 N 5.5
Oggi h: 13:30 nuvoloso Nuvoloso 14 8 67 1021 10 N 5.5
Oggi h: 13:00 nuvoloso Nuvoloso 14 9 71 1021 10 E/NE 7.4
Oggi h: 12:30 sereno Sereno 14 8 67 1021 10 E 13
Oggi h: 12:00 poco_nuvoloso Poco Nuvoloso 13 8 71 1021 10 E 11.1
Oggi h: 11:00 poco_nuvoloso Poco Nuvoloso 12 8 76 1021 10 E/NE 9.3
Oggi h: 10:30 sereno Sereno 11 7 76 1021 10 NE 13
Oggi h: 10:00 sereno Sereno 10 8 87 1021 10 NE 14.8
Oggi h: 09:30 sereno Sereno 10 7 81 1020 10 N/NE 14.8
Oggi h: 09:00 sereno Sereno 9 7 87 1020 10 NE 13
Oggi h: 08:30 sereno Sereno 8 6 87 1020 10 NE 11.1
Oggi h: 08:00 sereno Sereno 8 6 87 1020 10 N/NE 13
Oggi h: 07:30 sereno Sereno 8 6 87 1019 10 N/NE 11.1
Oggi h: 07:00 sereno Sereno 8 6 87 1019 10 NE 13
Oggi h: 06:00 sereno Sereno 7 6 93 1019 10 NE 13
Oggi h: 05:30 sereno Sereno 7 6 93 1019 10 N/NE 11.1
Oggi h: 05:00 sereno Sereno 8 6 87 1019 10 N/NO 11.1
Oggi h: 04:30 sereno Sereno 8 6 87 1018 10 N/NE 9.3
Oggi h: 04:00 sereno Sereno 8 6 87 1018 10 N/NE 9.3
Oggi h: 03:30 sereno Sereno 8 6 87 1018 10 N/NE 9.3
Oggi h: 03:00 sereno Sereno 8 7 93 1018 10 NE 11.1
Oggi h: 02:30 sereno Sereno 8 6 87 1018 10 NE 11.1
Oggi h: 01:30 sereno Sereno 9 7 87 1018 10 N/NE 11.1
Oggi h: 01:00 sereno Sereno 9 7 87 1018 10 NE 13
Oggi h: 00:30 sereno Sereno 9 7 87 1017 10 N/NE 14.8
Oggi h: 00:00 sereno Sereno 9 7 87 1017 10 N/NE 13
Ieri h: 23:30 sereno Sereno 9 7 87 1017 10 NE 13
Ieri h: 23:00 sereno Sereno 9 7 87 1017 10 NE 14.8
Ieri h: 22:30 sereno Sereno 10 8 87 1017 10 N/NE 14.8
Ieri h: 22:00 sereno Sereno 9 8 93 1017 10 NE 14.8
Ieri h: 21:30 sereno Sereno 10 8 87 1017 10 N/NE 13
Ieri h: 21:00 sereno Sereno 10 8 87 1017 10 NE 9.3
Ieri h: 20:30 sereno Sereno 11 8 81 1017 10 E/NE 14.8
Ieri h: 20:00 sereno Sereno 11 8 81 1017 10 E/NE 18.5
Ieri h: 19:30 sereno Sereno 11 8 81 1017 10 E/NE 20.3
Ieri h: 19:00 sereno Sereno 12 9 81 1017 10 E/NE 20.3